• MPC Preparation (Info)

  • MPEC 2016-T39 : 2016 TP2

    The following Minor Planet Electronic Circular may be linked-to from your own Web pages, but must not otherwise be redistributed electronically.

    A form allowing access to any MPEC is at the bottom of this page.


    Read MPEC 2016-T38 Read MPEC 2016-T40


    M.P.E.C. 2016-T39                                Issued 2016 Oct. 5, 16:02 UT
    
         The Minor Planet Electronic Circulars contain information on unusual
             minor planets and routine data on comets.  They are published
        on behalf of Division F of the International Astronomical Union by the
              Minor Planet Center, Smithsonian Astrophysical Observatory,
                              Cambridge, MA 02138, U.S.A.
    
                 Prepared using the Tamkin Foundation Computer Network
    
                                  MPC@CFA.HARVARD.EDU
                URL https://www.minorplanetcenter.net/    ISSN 1523-6714
    
                                       2016 TP2
    
    Observations:
         K16T02P* C2016 10 04.24605 23 45 30.47 +15 11 03.4          19.4 VqET039G96
         K16T02P  C2016 10 04.25230 23 45 29.17 +15 09 04.9          19.2 VqET039G96
         K16T02P  C2016 10 04.25855 23 45 27.90 +15 07 05.7          19.0 VqET039G96
         K16T02P  C2016 10 04.26480 23 45 26.58 +15 05 05.4          18.7 VqET039G96
         K16T02P  C2016 10 04.32855 23 45 13.35 +14 44 06.8          18.9 VqET039G96
         K16T02P  C2016 10 04.32915 23 45 13.22 +14 43 54.6          19.0 VqET039G96
         K16T02P  C2016 10 04.32977 23 45 13.12 +14 43 42.1          19.4 VqET039G96
         K16T02P  C2016 10 04.33040 23 45 12.96 +14 43 29.1          19.5 VqET039G96
         K16T02P  C2016 10 04.36508 23 45 06.09 +14 31 32.1          19.1 VqET039I52
         K16T02P  C2016 10 04.36549 23 45 06.02 +14 31 23.6          19.2 VqET039I52
         K16T02P  C2016 10 04.36591 23 45 05.96 +14 31 14.8          19.4 VqET039I52
         K16T02P  C2016 10 04.36656 23 45 05.79 +14 31 00.9          19.7 VqET039I52
         K16T02P KC2016 10 04.76192 23 45 07.70 +11 49 20.4          19.2 RqET039587
         K16T02P KC2016 10 04.76550 23 45 07.12 +11 47 38.7                qET039587
         K16T02P KC2016 10 04.76848 23 45 06.66 +11 46 14.3                qET039587
         K16T02P KC2016 10 04.76907 23 45 06.56 +11 45 57.9                qET039587
         K16T02P KC2016 10 04.79002 23 45 03.32 +11 35 15.7                qET039J95
         K16T02P KC2016 10 04.79773 23 45 02.17 +11 31 32.9                qET039J95
         K16T02P KC2016 10 04.80212 23 45 01.46 +11 29 25.2          19.2 RqET039J95
         K16T02P KC2016 10 04.82058 23 44 57.01 +11 21 18.1          18.1 RqET039104
         K16T02P KC2016 10 04.82333 23 44 56.42 +11 19 56.4          18.1 RqET039104
         K16T02P KC2016 10 04.82668 23 44 55.71 +11 18 16.4          18.1 RqET039104
         K16T02P KC2016 10 04.83675 23 44 52.77 +11 13 02.2          18.5 RoET039K51
         K16T02P KC2016 10 04.83879 23 44 52.34 +11 12 00.2          18.4 RoET039K51
         K16T02P KC2016 10 04.84085 23 44 51.87 +11 10 57.7          18.7 RoET039K51
         K16T02P KC2016 10 04.84538 23 44 51.63 +11 08 55.2          17.0 RqET039160
         K16T02P KC2016 10 04.84753 23 44 51.08 +11 07 49.8          18.0 RqET039160
         K16T02P KC2016 10 04.84971 23 44 50.64 +11 06 43.6          17.8 RqET039160
         K16T02P KC2016 10 04.86697 23 44 45.20 +10 57 37.6                tET039595
         K16T02P KC2016 10 04.86976 23 44 44.55 +10 56 10.5          18.8 VtET039595
         K16T02P KC2016 10 04.87255 23 44 43.87 +10 54 42.7                tET039595
         K16T02P KC2016 10 04.87539 23 44 43.18 +10 53 14.1                tET039595
         K16T02P KC2016 10 04.88785 23 44 41.28 +10 46 48.0          18.1 RoET039107
         K16T02P KC2016 10 04.89205 23 44 40.94 +10 44 28.4          18.4 RUET039203
         K16T02P KC2016 10 04.89569 23 44 39.26 +10 42 37.4          18.5 RoET039107
         K16T02P KC2016 10 04.90286 23 44 37.45 +10 38 47.8          17.9 RoET039107
         K16T02P KC2016 10 04.90504 23 44 37.71 +10 37 32.0          18.7 RUET039203
         K16T02P KC2016 10 04.95975 23 44 23.76 +10 07 15.5                qET039204
         K16T02P KC2016 10 04.96248 23 44 23.05 +10 05 41.9                qET039204
         K16T02P KC2016 10 04.96522 23 44 22.33 +10 04 08.2                qET039204
         K16T02P KC2016 10 04.96796 23 44 21.63 +10 02 34.3          18.6 RqET039204
         K16T02P KC2016 10 04.97069 23 44 20.92 +10 01 00.1                qET039204
         K16T02P  C2016 10 05.11698423 44 33.37 +08 32 22.6          18.6 VtET039H01
         K16T02P  C2016 10 05.12867223 44 30.43 +08 24 41.5          18.2 VtET039H01
         K16T02P  C2016 10 05.13243023 44 29.45 +08 22 11.8          18.1 VtET039H01
         K16T02P  C2016 10 05.14043923 44 27.31 +08 16 51.0          18.8 VtET039H01
         K16T02P  C2016 10 05.17520 23 44 19.54 +07 53 27.3          17.5 RoET039926
         K16T02P  C2016 10 05.17597 23 44 19.30 +07 52 54.6          17.4 RoET039926
         K16T02P  C2016 10 05.17676 23 44 19.06 +07 52 22.0          17.8 RoET039926
         K16T02P  C2016 10 05.25115 23 43 54.24 +06 58 12.2                qET039G96
         K16T02P  C2016 10 05.25315 23 43 53.55 +06 56 43.1          19.1 VqET039G96
         K16T02P  C2016 10 05.25520 23 43 52.82 +06 55 08.9          18.2 VqET039G96
         K16T02P  C2016 10 05.25718 23 43 52.14 +06 53 38.9          18.6 VqET039G96
         K16T02P  C2016 10 05.39978 23 43 01.67 +04 56 04.4          17.5 RoET039926
         K16T02P  C2016 10 05.40058 23 43 01.41 +04 55 22.1          18.1 RoET039926
         K16T02P  C2016 10 05.40137 23 43 01.15 +04 54 39.5          17.8 RoET039926
    
    Observer details:
    104 San Marcello Pistoiese.  Observer P. Bacci.  Measurers P. Bacci, L. Tesi,
        G. Fagioli.  0.60-m f/4 reflector + CCD.
    107 Cavezzo.  Observer R. Bonomi.  0.4-m f/5.5 reflector + CCD.
    160 Castelmartini.  Observers M. Jaeger, E. Prosperi, S. Prosperi, W. Vollmann.
        Measurer E. Prosperi.  0.35-m f/10 Schmidt-Cassegrain + CCD.
    203 GiaGa Observatory.  Observers S. Foglia, G. Galli.  Measurer G. Galli.
        0.28-m f/6.8 Schmidt-Cassegrain + CCD.
    204 Schiaparelli Observatory.  Observer L. Buzzi.  0.60-m f/4.64 reflector
        + CCD.
    587 Sormano.  Observers P. Ghezzi, F. Manca, P. Sicoli, A. Testa.  Measurer
        P. Sicoli.  0.5-m f/6.8 reflector + CCD.
    595 Farra d'Isonzo.  Observers E. Pettarin, F. Piani.  Measurer E. Pettarin.
        0.61-m f/4.0 reflector + CCD.
    926 Tenagra II Observatory.  Observers M. Schwartz, P. R. Holvorcem.  Measurer
        M. Schwartz.  0.81-m f/7 Ritchey-Chretien + CCD.
    G96 Mt. Lemmon Survey.  Observers A. D. Grauer, R. G. Matheny.  Measurers
        E. J. Christensen, D. C. Fuls, A. R. Gibbs, A. D. Grauer, J. A. Johnson,
        R. A. Kowalski, S. M. Larson, G. J. Leonard, R. G. Matheny, R. L. Seaman,
        F. C. Shelly.  1.5-m reflector + 10K CCD.
    H01 Magdalena Ridge Observatory, Socorro.  Observers W. H. Ryan, E. V. Ryan.
        Measurer W. H. Ryan.  2.4-m f/8.9 reflector + CCD.
    I52 Steward Observatory, Mt. Lemmon Station.  Observer G. J. Leonard.
        Measurers E. J. Christensen, D. C. Fuls, A. R. Gibbs, A. D. Grauer,
        J. A. Johnson, R. A. Kowalski, S. M. Larson, G. J. Leonard, R. G. Matheny,
        R. L. Seaman, F. C. Shelly.  1.0-m reflector + CCD.
    J95 Great Shefford.  Observer P. Birtwhistle.  0.40-m f/6.0 Schmidt-Cassegrain
        + CCD.
    K51 Osservatorio del Celado, Castello Tesino.  Observer R. Broccato.  Measurer
        M. Campestrin.  0.80-m f/4 reflector + CCD.
    
    Orbital elements:
    2016 TP2                                                 Earth MOID = 0.0045 AU
    Epoch 2016 July 31.0 TT = JDT 2457600.5                 MPC
    M 293.94722              (2000.0)            P               Q
    n   0.55553074     Peri.  258.09947     -0.00568901     -0.99882159
    a   1.4655388      Node   192.53045     +0.98199579     +0.00352075
    e   0.4908323      Incl.   12.83557     +0.18881714     -0.04840487
    P   1.77           H   26.5           G   0.15           U   5
    Residuals in seconds of arc
    161004 G96  0.1-  0.4+    161004 104  0.5+  0.6-    161004 204  0.6-  0.3-
    161004 G96  0.4-  0.2+    161004 104  0.4+  0.5-    161004 204  0.7-  0.2-
    161004 G96  0.1-  0.1-    161004 104  0.5+  0.6-    161004 204  0.5-  0.1-
    161004 G96  0.4-  0.7-    161004 K51  0.2-  0.5+    161004 204  0.5-  0.3-
    161004 G96  0.5-  0.2+    161004 K51  0.1+  0.2+    161005 H01  0.1+  0.1+
    161004 G96  0.7-  0.2+    161004 K51  0.1-  0.0     161005 H01  0.3+  0.2+
    161004 G96  0.3-  0.3+    161004 160  0.8+  0.2+    161005 H01  0.3+  0.0
    161004 G96  0.7-  0.1+    161004 160  0.0   0.3+    161005 H01  0.3+  0.1-
    161004 I52  1.0-  0.0     161004 160  0.9+  0.6+    161005 926  0.2+  0.1+
    161004 I52  0.9-  0.1+    161004 595  0.1+  0.3+    161005 926  0.1+  0.5-
    161004 I52  0.6-  0.1+    161004 595  0.3+  0.1+    161005 926  0.1+  0.1-
    161004 I52  1.3-  0.1-    161004 595  0.1+  0.5-    161005 G96  0.5-  0.7-
    161004 587  0.4+  1.0+    161004 595  0.0   0.2-    161005 G96  0.3-  1.0+
    161004 587  0.2+  0.0     161004 107  0.5+  0.0     161005 G96  0.4-  0.2+
    161004 587  0.5+  0.3-    161004 203  0.4-  0.7-    161005 G96  0.0   0.5+
    161004 587  0.4+  0.0     161004 107  0.5-  0.8-    161005 926  1.1-  0.3-
    161004 J95  0.2-  0.4-    161004 107  0.6-  0.2-    161005 926  1.1-  0.3+
    161004 J95  0.4+  0.0     161004 203  0.4-  0.6-    161005 926  1.2-  0.1+
    161004 J95  0.2+  0.1+    161004 204  0.6-  0.1+
    
    Ephemeris:
    2016 TP2                 a,e,i = 1.47, 0.49, 13                  q = 0.7462
    Date    TT    R. A. (2000) Decl.     Delta      r     Elong.  Phase     V
    2016 09 05    23 49 01.0 +25 37 00   0.2871  1.2545   145.1    27.4    25.5
    ...
    2016 09 20    23 49 12.4 +26 30 32   0.1462  1.1358   152.4    24.2    23.7
    ...
    2016 09 28    23 48 05.1 +25 03 07   0.07597 1.0718   155.8    22.5    22.1
    ...
    2016 10 04    23 45 43.2 +16 24 09   0.02503 1.0241   162.0    17.6    19.5
    2016 10 05    23 44 24.5 +09 49 35   0.01686 1.0163   164.4    15.4    18.5
    2016 10 06    23 41 06.6 -08 06 05   0.0093151.0084   158.8    21.0    17.4
    ...
    2016 10 12    11 50 25.6 -36 39 38   0.04396 0.9620    34.4   144.1    27.1
    ...
    2016 10 20    11 51 09.7 -31 40 34   0.1127  0.9032    32.9   143.2    28.8
    ...
    2016 11 04    12 02 43.7 -28 44 02   0.2499  0.8097    38.0   131.0    28.8
    
    A. U. Tomatic                (C) Copyright 2016 MPC           M.P.E.C. 2016-T39
    

    Read MPEC 2016-T38 Read MPEC 2016-T40


    MPEC number:

    Enter an MPEC number in one of the following forms:

    • 1997-B01 (the full form)
    • J97B01 (the packed version of the full form)
    • B01 (the abbreviated form)